Terminal Aerodrome Forecast
Issued by NWS Cleveland, OH

Home | Current Version | Previous Version | Text Only | Print | Product List | Glossary On
Versions: 1 2 3 4 5 6 7 8 9 10 11 12 13 14 15 16 17 18 19 20 21 22 23 24 25 26
000
FTUS41 KCLE 232057 AAB
TAFCLE
TAF AMD
KCLE 232057Z 2321/2424 34008KT P6SM FEW045
     FM232300 VRB03KT P6SM SCT250
     FM241000 17003KT 6SM BR BKN250
     FM241300 21007KT P6SM SCT100 BKN250
     FM241800 23007KT P6SM SCT050 BKN250=

USA.gov is the U.S. government's official web portal to all federal, state and local government web resources and services.